Weather History for El Dorado, AR

Change the Weather History Date:

Wednesday, January 26, 2011

  Actual Average Record
Temperature  
Mean Temperature 40 °F 44 °F  
Max Temperature 55 °F 55 °F 80 °F (1952)
Min Temperature 24 °F 33 °F 9 °F (1940)
Degree Days  
Heating Degree Days 25 21  
Month to date heating degree days 660 555  
Since 1 July heating degree days 1735 1642  
Cooling Degree Days 0 0  
Month to date cooling degree days 0 0  
Year to date cooling degree days 0 0  
Moisture  
Dew Point 29 °F    
Average Humidity 66    
Maximum Humidity 100    
Minimum Humidity 32    
Precipitation  
Precipitation 0.00 in 0.15 in 2.20 in (1932)
Month to date precipitation 3.20 3.54  
Year to date precipitation 3.20 3.54  
Snow  
Snow 0.00 in - - ()
Month to date snowfall 1.0  
Since 1 July snowfall 1.0  
Snow Depth 0.00 in    
Sea Level Pressure  
Sea Level Pressure 30.16 in    
Wind  
Wind Speed 4 mph (WSW)    
Max Wind Speed 12 mph    
Max Gust Speed 15 mph    
Visibility 10 miles    
Events      
T = Trace of Precipitation, MM = Missing Value Source: NWS Daily Summary

Daily Weather History Graph

Daily Weather History Graph

Search for Another Location

Airport:

Trip Planner

Search our weather history database for the weather conditions in past years. The results will help you decide how hot, cold, wet, or windy it might be!

Date:

Astronomy

Jan. 26, 2011 Rise Set
Actual Time 7:10 AM CST 5:37 PM CST
Civil Twilight 6:44 AM CST 6:03 PM CST
Nautical Twilight 6:14 AM CST 6:33 PM CST
Astronomical Twilight 5:45 AM CST 7:02 PM CST
Moon 12:30 AM CST (1/26) 11:17 AM CST (1/26)
Length of Visible Light 11h 19m
Length of Day
10h 26m
Waning Gibbous, 48% of the Moon is Illuminated
Jan 26
Waning Gibbous
Feb 2
New
Feb 11
First Quarter
Feb 18
Full
Feb 24
Last Quarter

Hourly Weather History & Observations

Time (CST) Temp. Windchill Dew Point Humidity Pressure Visibility Wind Dir Wind Speed Gust Speed Precip Events Conditions
12:53 AM 28.0 °F - 28.0 °F 100% 30.12 in 9.0 mi Calm Calm - N/A   Clear
1:53 AM 28.0 °F - 27.0 °F 96% 30.12 in 8.0 mi Calm Calm - N/A   Clear
2:53 AM 27.0 °F - 26.1 °F 96% 30.13 in 8.0 mi Calm Calm - N/A   Clear
3:53 AM 27.0 °F - 25.0 °F 92% 30.14 in 8.0 mi Calm Calm - N/A   Clear
4:53 AM 26.1 °F - 25.0 °F 96% 30.13 in 9.0 mi Calm Calm - N/A   Clear
5:53 AM 25.0 °F - 24.1 °F 96% 30.15 in 7.0 mi Calm Calm - N/A   Clear
6:53 AM 25.0 °F - 24.1 °F 96% 30.17 in 10.0 mi Calm Calm - N/A   Clear
7:53 AM 27.0 °F - 26.1 °F 96% 30.19 in 9.0 mi Calm Calm - N/A   Clear
8:53 AM 34.0 °F - 32.0 °F 92% 30.22 in 9.0 mi Calm Calm - N/A   Clear
9:53 AM 39.9 °F 35.1 °F 32.0 °F 73% 30.23 in 10.0 mi WSW 6.9 mph - N/A   Clear
10:53 AM 45.0 °F 42.6 °F 30.9 °F 58% 30.23 in 10.0 mi WSW 4.6 mph - N/A   Clear
11:53 AM 48.9 °F - 28.9 °F 46% 30.20 in 10.0 mi WNW 4.6 mph - N/A   Clear
12:53 PM 52.0 °F - 28.9 °F 41% 30.17 in 10.0 mi WSW 8.1 mph - N/A   Clear
1:53 PM 54.0 °F - 28.0 °F 37% 30.14 in 10.0 mi West 10.4 mph - N/A   Clear
2:53 PM 55.0 °F - 28.0 °F 35% 30.14 in 10.0 mi West 9.2 mph - N/A   Clear
3:53 PM 55.0 °F - 27.0 °F 34% 30.14 in 10.0 mi West 10.4 mph - N/A   Clear
4:53 PM 53.1 °F - 28.9 °F 40% 30.13 in 10.0 mi WSW 4.6 mph - N/A   Clear
5:53 PM 48.0 °F - 30.9 °F 52% 30.14 in 10.0 mi SW 4.6 mph - N/A   Clear
6:53 PM 41.0 °F - 33.1 °F 73% 30.14 in 10.0 mi Calm Calm - N/A   Clear
7:53 PM 42.1 °F 40.2 °F 32.0 °F 67% 30.15 in 10.0 mi SSW 3.5 mph - N/A   Clear
8:53 PM 39.0 °F 36.8 °F 33.1 °F 79% 30.15 in 10.0 mi SSW 3.5 mph - N/A   Clear
9:53 PM 39.0 °F 36.8 °F 34.0 °F 82% 30.15 in 10.0 mi SSW 3.5 mph - N/A   Clear
10:53 PM 41.0 °F 37.1 °F 30.9 °F 67% 30.15 in 10.0 mi SSW 5.8 mph - N/A   Clear
11:53 PM 39.9 °F 36.7 °F 30.9 °F 70% 30.16 in 10.0 mi SSW 4.6 mph - N/A   Clear